Location: Hlohovi?ky
(49.8934°N, 13.6739°E)
Time: 05:30:21
(UTC+00:00)

Cosmos 1356 Rocket - Pass Details

Date: 19 May 2025
Orbit: 517 x 566 km, 81.2° (Epoch: 14 June)

Event Time Altitude Azimuth Distance (km) Brightness Sun altitude
Exits shadow 20:28:19 15° 173° (S) 1,561 5.1 -12.3°
Maximum altitude 20:31:35 57° 98° (E) 671 3.5 -12.6°
Drops below altitude 10° 20:35:37 10° 20° (NNE) 1,861 6.5 -13.0°
Sets 20:37:49 0° 16° (NNE) 2,755 7.5 -13.2°
